View from above orbital plane
|
View from above satellite
|
Ground track
|
The orbit data is extracted from the following two-line orbital elements,
1 29092U 06015A 21060.50326624 .00000071 00000-0 15222-4 0 9995
2 29092 97.9202 88.9035 0001454 91.0984 269.0396 14.83133097802836
Epoch (UTC): | 01 March 2021 12:04:42 |
Eccentricity: | 0.0001454 |
inclination: | 97.9202° |
perigee height: | 618 km |
apogee height: | 620 km |
right ascension of ascending node: | 88.9035° |
argument of perigee: | 91.0984° |
revolutions per day: | 14.83133097 |
mean anomaly at epoch: | 269.0396° |
orbit number at epoch: | 80283 |
The dashed part of the orbit path shows where the satellite is in the earth's shadow,
|
|